Find Starlink 3391

NORAD ID: 51117 Int'l Des: 2022-005 Owner: SPXS Country: US Constellation: starlink operational
LEOCIRCULAR

Current View

Loading 3D Globe...

About Starlink 3391

Starlink 3391 (NORAD 51117) is a starlink constellation satellite (v1.5) launched Jan 19, 2022 by SPXS of US. It operates in LEO, CIRCULAR orbit with a mass of 297.00 kg.

About Starlink 3391

Description loading...

Upcoming Passes

Passes for default location (London). Set your location on the main map for personalized predictions.

Altitude History

Loading altitude history...

Two-Line Element Set

1 51117U 22005P 26171.32698220 -.00000253 00000-0 22259-5 0 9999
2 51117 53.1586 188.1383 0001204 82.6096 277.5032 15.08835188244378
Epoch: Jun 20, 2026 • Age: 16 hours

Current Status

Altitude 549.9 km
Velocity 7.59 km/s
Sub-Earth Point -31.46°S, 104.62°W
Launch Date Jan 19, 2022
Age 4.4 years
Type internet

Technical Details

Classification Payload
Mass 297.00 kg
Dry Mass 275.00 kg
Total Mass 297.00 kg
Length 0.20 m
Diameter 2.80 m
Span 9.00 m
Shape Box + pan
Manufacturer SPXS
Bus Type Starlink
Phase Status In Orbit
Owner/State SPXS/US

Most Searched